ARG1079 SASA-SABE

Flight info

Callsign ARG1079
Flight time N/A
Altitude 35000
Route PONPI3A PONPI UT681 PUBER UL550 ROS UT672 MULTA UW24 SNT SNT9R
Aircraft B738/M-SDE2E3FGHIRWXY/LB1

Departure

Time 2026-04-26 20:24
Airport Martín Miguel de Güemes International Airport (SASA)

Arrival

Time N/A
Airport Aeroparque Jorge Newbery (SABE)
Time Latitude Longitude Altitude Speed Heading
2026-04-26 20:08 -24.84474 -65.47900 4016 ft 0 kts 22°
2026-04-26 20:16 -24.84485 -65.47905 4016 ft 2 kts 13°
2026-04-26 20:17 -24.84502 -65.47906 4016 ft 2 kts 336°
2026-04-26 20:17 -24.84513 -65.47894 4016 ft 2 kts 296°
2026-04-26 20:17 -24.84515 -65.47890 4016 ft 0 kts 295°
2026-04-26 20:19 -24.84508 -65.47907 4016 ft 4 kts 293°
2026-04-26 20:19 -24.84502 -65.47930 4016 ft 5 kts 282°
2026-04-26 20:19 -24.84513 -65.48003 4016 ft 12 kts 253°
2026-04-26 20:20 -24.84547 -65.48115 4016 ft 19 kts 252°
2026-04-26 20:20 -24.84577 -65.48219 4016 ft 23 kts 252°
2026-04-26 20:20 -24.84654 -65.48369 4007 ft 23 kts 223°
2026-04-26 20:20 -24.84788 -65.48452 4017 ft 22 kts 191°
2026-04-26 20:21 -24.84937 -65.48486 4017 ft 22 kts 191°
2026-04-26 20:21 -24.85102 -65.48522 4016 ft 26 kts 191°
2026-04-26 20:21 -24.85292 -65.48561 4016 ft 30 kts 192°
2026-04-26 20:21 -24.85489 -65.48604 4018 ft 28 kts 194°
2026-04-26 20:22 -24.85640 -65.48721 4018 ft 26 kts 230°
2026-04-26 20:22 -24.85746 -65.48877 4020 ft 25 kts 239°
2026-04-26 20:22 -24.85821 -65.48978 4019 ft 7 kts 189°
2026-04-26 20:22 -24.85858 -65.48959 4018 ft 6 kts 126°
2026-04-26 20:23 -24.85860 -65.48917 4018 ft 6 kts 69°
2026-04-26 20:23 -24.85830 -65.48892 4019 ft 6 kts 13°
2026-04-26 20:23 -24.85787 -65.48900 4020 ft 9 kts 355°
2026-04-26 20:23 -24.85734 -65.48858 4019 ft 26 kts 52°
2026-04-26 20:24 -24.85464 -65.48464 4016 ft 101 kts 52°
2026-04-26 20:24 -24.84893 -65.47662 4030 ft 161 kts 52°
2026-04-26 20:24 -24.84158 -65.46633 4547 ft 179 kts 53°
2026-04-26 20:24 -24.83400 -65.45484 5283 ft 195 kts 53°
2026-04-26 20:25 -24.82570 -65.44298 6129 ft 197 kts 56°
2026-04-26 20:25 -24.82061 -65.43463 6589 ft 199 kts 57°
2026-04-26 20:25 -24.81024 -65.41746 7284 ft 205 kts 57°
2026-04-26 20:25 -24.80186 -65.40439 7755 ft 211 kts 55°
2026-04-26 20:26 -24.79297 -65.39122 8250 ft 215 kts 55°
2026-04-26 20:26 -24.78683 -65.37606 8480 ft 231 kts 86°
2026-04-26 20:26 -24.79081 -65.35827 8671 ft 251 kts 125°
2026-04-26 20:26 -24.80437 -65.34628 9000 ft 264 kts 158°
2026-04-26 20:27 -24.82317 -65.34185 9240 ft 286 kts 175°
2026-04-26 20:27 -24.84330 -65.34097 9968 ft 291 kts 179°
2026-04-26 20:27 -24.86383 -65.34089 10493 ft 303 kts 180°
2026-04-26 20:27 -24.88582 -65.34086 10674 ft 328 kts 180°
2026-04-26 20:28 -24.90938 -65.34069 10876 ft 348 kts 179°
2026-04-26 20:28 -24.93403 -65.34033 11345 ft 357 kts 179°
2026-04-26 20:28 -24.95911 -65.33981 11936 ft 362 kts 179°
2026-04-26 20:28 -24.98449 -65.33917 12536 ft 367 kts 180°
2026-04-26 20:29 -25.01020 -65.33846 13124 ft 372 kts 180°
2026-04-26 20:29 -25.03627 -65.33769 13684 ft 378 kts 180°
2026-04-26 20:29 -25.06232 -65.33690 14256 ft 380 kts 180°
2026-04-26 20:29 -25.08912 -65.33608 14871 ft 380 kts 180°
2026-04-26 20:30 -25.11529 -65.33527 15470 ft 382 kts 181°
2026-04-26 20:30 -25.14202 -65.33445 16031 ft 385 kts 181°
2026-04-26 20:30 -25.16887 -65.33362 16628 ft 387 kts 182°
2026-04-26 20:30 -25.19583 -65.33277 17216 ft 389 kts 182°
2026-04-26 20:31 -25.22297 -65.33187 17792 ft 391 kts 182°
2026-04-26 20:31 -25.25027 -65.33097 18385 ft 393 kts 183°
2026-04-26 20:31 -25.27766 -65.33010 18886 ft 395 kts 184°
2026-04-26 20:31 -25.30521 -65.32924 19369 ft 397 kts 184°
2026-04-26 20:32 -25.33298 -65.32839 19747 ft 402 kts 184°
2026-04-26 20:32 -25.36104 -65.32754 20181 ft 404 kts 185°
2026-04-26 20:32 -25.38904 -65.32665 20779 ft 402 kts 185°
2026-04-26 20:32 -25.41715 -65.32578 21086 ft 406 kts 185°
2026-04-26 20:33 -25.44515 -65.32494 21483 ft 410 kts 186°
2026-04-26 20:33 -25.47365 -65.32407 21957 ft 411 kts 186°
2026-04-26 20:33 -25.50242 -65.32317 22427 ft 413 kts 186°
2026-04-26 20:33 -25.53123 -65.32228 22856 ft 416 kts 187°
2026-04-26 20:34 -25.56033 -65.32137 23184 ft 419 kts 187°
2026-04-26 20:34 -25.58955 -65.32048 23502 ft 423 kts 187°
2026-04-26 20:34 -25.61900 -65.31957 23908 ft 423 kts 187°
2026-04-26 20:34 -25.64848 -65.31863 24304 ft 424 kts 187°
2026-04-26 20:35 -25.67811 -65.31772 24604 ft 427 kts 187°
2026-04-26 20:35 -25.70776 -65.31681 24989 ft 427 kts 187°
2026-04-26 20:35 -25.73735 -65.31581 25223 ft 433 kts 186°
2026-04-26 20:35 -25.76770 -65.31267 25505 ft 444 kts 180°
2026-04-26 20:36 -25.79814 -65.30377 25757 ft 460 kts 169°
2026-04-26 20:36 -25.82825 -65.29076 26103 ft 465 kts 166°
2026-04-26 20:36 -25.85836 -65.27693 26379 ft 468 kts 167°
2026-04-26 20:36 -25.88863 -65.26392 26788 ft 466 kts 169°
2026-04-26 20:37 -25.91942 -65.25246 27047 ft 467 kts 172°
2026-04-26 20:37 -25.95051 -65.24176 27314 ft 469 kts 172°
2026-04-26 20:37 -25.98137 -65.23126 27616 ft 470 kts 172°
2026-04-26 20:37 -26.01265 -65.22040 27933 ft 472 kts 172°
2026-04-26 20:38 -26.04409 -65.20922 28199 ft 475 kts 171°
2026-04-26 20:38 -26.07573 -65.19775 28430 ft 478 kts 171°
2026-04-26 20:38 -26.10741 -65.18611 28674 ft 481 kts 171°
2026-04-26 20:38 -26.13919 -65.17435 28930 ft 483 kts 171°
2026-04-26 20:39 -26.17082 -65.16261 29188 ft 484 kts 171°
2026-04-26 20:39 -26.20281 -65.15073 29417 ft 486 kts 171°
2026-04-26 20:39 -26.23513 -65.13874 29645 ft 489 kts 171°
2026-04-26 20:39 -26.26742 -65.12676 29881 ft 491 kts 171°
2026-04-26 20:40 -26.29987 -65.11472 30114 ft 493 kts 171°
2026-04-26 20:40 -26.33242 -65.10263 30391 ft 492 kts 172°
2026-04-26 20:40 -26.36493 -65.09056 30763 ft 490 kts 172°
2026-04-26 20:40 -26.39715 -65.07856 31158 ft 486 kts 172°
2026-04-26 20:41 -26.42879 -65.06677 31519 ft 484 kts 172°
2026-04-26 20:41 -26.46070 -65.05491 31798 ft 484 kts 172°
2026-04-26 20:41 -26.49262 -65.04305 32074 ft 484 kts 172°
2026-04-26 20:41 -26.52454 -65.03116 32409 ft 482 kts 172°
2026-04-26 20:42 -26.55639 -65.01929 32783 ft 480 kts 173°
2026-04-26 20:42 -26.58806 -65.00750 33147 ft 478 kts 173°
2026-04-26 20:42 -26.61963 -64.99573 33473 ft 477 kts 173°
2026-04-26 20:42 -26.65116 -64.98398 33754 ft 476 kts 173°
2026-04-26 20:43 -26.68222 -64.97240 34038 ft 475 kts 173°
2026-04-26 20:43 -26.71363 -64.96066 34280 ft 475 kts 173°
2026-04-26 20:43 -26.74493 -64.94895 34472 ft 475 kts 173°
2026-04-26 20:43 -26.77629 -64.93722 34685 ft 475 kts 173°
2026-04-26 20:44 -26.80773 -64.92545 34907 ft 475 kts 173°
2026-04-26 20:44 -26.87073 -64.90191 34995 ft 479 kts 173°
2026-04-26 20:45 -26.93359 -64.87830 34987 ft 474 kts 173°
2026-04-26 20:45 -26.99616 -64.85482 34988 ft 472 kts 174°
2026-04-26 20:46 -27.05828 -64.83155 34972 ft 470 kts 174°
2026-04-26 20:46 -27.12028 -64.80821 34980 ft 469 kts 174°
2026-04-26 20:47 -27.18181 -64.78501 34981 ft 469 kts 174°
2026-04-26 20:47 -27.24387 -64.76168 34980 ft 470 kts 174°
2026-04-26 20:48 -27.30612 -64.73823 34984 ft 472 kts 174°
2026-04-26 20:48 -27.36858 -64.71460 34981 ft 474 kts 174°
2026-04-26 20:49 -27.43095 -64.69098 34980 ft 477 kts 174°
2026-04-26 20:49 -27.49383 -64.66714 34979 ft 478 kts 174°
2026-04-26 20:50 -27.55671 -64.64008 34972 ft 492 kts 167°
2026-04-26 20:50 -27.61777 -64.60241 34979 ft 504 kts 160°
2026-04-26 20:51 -27.67679 -64.55874 34971 ft 508 kts 158°
2026-04-26 20:51 -27.73602 -64.51571 34975 ft 504 kts 160°
2026-04-26 20:52 -27.79576 -64.47473 34973 ft 501 kts 161°
2026-04-26 20:52 -27.85533 -64.43477 34968 ft 500 kts 161°
2026-04-26 20:53 -27.91508 -64.39462 34974 ft 499 kts 161°
2026-04-26 20:53 -27.97484 -64.35426 34976 ft 499 kts 161°
2026-04-26 20:54 -28.03437 -64.31390 34981 ft 498 kts 161°
2026-04-26 20:54 -28.09383 -64.27357 34986 ft 498 kts 161°
2026-04-26 20:55 -28.15282 -64.23349 34981 ft 498 kts 161°
2026-04-26 20:55 -28.21228 -64.19309 34982 ft 498 kts 161°
2026-04-26 20:56 -28.27170 -64.15265 34985 ft 498 kts 161°
2026-04-26 20:56 -28.33122 -64.11214 34983 ft 499 kts 161°
2026-04-26 20:57 -28.39045 -64.07179 34989 ft 499 kts 161°
2026-04-26 20:57 -28.45008 -64.03112 34989 ft 500 kts 161°
2026-04-26 20:58 -28.50973 -63.99034 34996 ft 501 kts 161°
2026-04-26 20:58 -28.56945 -63.94942 34995 ft 502 kts 161°
2026-04-26 20:59 -28.62898 -63.90860 35000 ft 502 kts 161°
2026-04-26 20:59 -28.68892 -63.86743 35012 ft 503 kts 161°
2026-04-26 21:00 -28.74892 -63.82613 35018 ft 504 kts 161°
2026-04-26 21:00 -28.80897 -63.78477 35021 ft 505 kts 161°
2026-04-26 21:01 -28.86874 -63.74332 35027 ft 506 kts 161°
2026-04-26 21:01 -28.92881 -63.70143 35025 ft 506 kts 161°
2026-04-26 21:02 -28.98902 -63.65942 35017 ft 506 kts 161°
2026-04-26 21:02 -29.04914 -63.61746 35027 ft 506 kts 161°
2026-04-26 21:03 -29.10918 -63.57552 35025 ft 506 kts 161°
2026-04-26 21:03 -29.16921 -63.53353 35037 ft 505 kts 161°
2026-04-26 21:04 -29.22913 -63.49154 35049 ft 504 kts 160°
2026-04-26 21:04 -29.28901 -63.44953 35056 ft 504 kts 161°
2026-04-26 21:05 -29.34842 -63.40784 35056 ft 504 kts 160°
2026-04-26 21:05 -29.40814 -63.36576 35060 ft 504 kts 160°
2026-04-26 21:06 -29.46781 -63.32369 35065 ft 503 kts 160°
2026-04-26 21:06 -29.52744 -63.28147 35069 ft 503 kts 160°
2026-04-26 21:07 -29.58709 -63.23918 35073 ft 503 kts 160°
2026-04-26 21:07 -29.64659 -63.19688 35075 ft 503 kts 160°
2026-04-26 21:08 -29.70582 -63.15468 35084 ft 503 kts 160°
2026-04-26 21:08 -29.75571 -63.11912 35085 ft 503 kts 160°
2026-04-26 21:09 -29.81475 -63.07702 35081 ft 503 kts 160°
2026-04-26 21:09 -29.87430 -63.03446 35086 ft 503 kts 160°
2026-04-26 21:10 -29.93381 -62.99184 35086 ft 503 kts 160°
2026-04-26 21:10 -29.99287 -62.94950 35089 ft 502 kts 160°